Regional Weather Roundup
Issued by NWS

Home | Current Version | Previous Version | Text Only | Print | Product List | Glossary On
Versions: 1 2 3 4 5 6 7 8 9 10 11 12 13 14 15 16 17 18 19 20 21 22 23 24 25 26 27 28 29 30 31 32 33 34 35 36 37 38 39 40 41 42 43 44 45 46 47 48 49 50
000
ASUS44 KMEG 050510
RWRTN
TENNESSEE HOURLY STATE WEATHER ROUNDUP
NATIONAL WEATHER SERVICE MEMPHIS TN
1200 AM CDT THU MAY 05 2016

TNZ002-004-019-021-049-052-054-088>092-050600-
WEST TENNESSEE

CITY           SKY/WX    TMP DP  RH WIND       PRES   REMARKS
MEMPHIS INTL   PTCLDY    62  43  49 N8        29.90R
NWS MEMPHIS      N/A     60 N/A N/A MISG        N/A
JACKSON        PTCLDY    54  43  66 NE7       29.90R
DYERSBURG      PTCLDY    55  43  62 NE9       29.90R
UNION CITY     CLEAR     52  43  71 CALM      29.89R
LEXINGTON      CLEAR     52  41  66 CALM      29.88R
$$

TNZ008-025-027-028-033-062-065-066-050600-
NORTH MIDDLE TENNESSEE

CITY           SKY/WX    TMP DP  RH WIND       PRES   REMARKS
NASHVILLE      PTCLDY    52  41  66 NW7       29.86R
CLARKSVILLE    PTCLDY    50  41  71 NW5       29.87S
SMYRNA         CLEAR     53  42  66 N9        29.86S
COOKEVILLE     PTCLDY    48  46  93 NW3       29.81R
CROSSVILLE     PTCLDY    47  43  86 NW6       29.81R
$$

TNZ061-075-076-078-094-096-097-050600-
SOUTH MIDDLE TENNESSEE

CITY           SKY/WX    TMP DP  RH WIND       PRES   REMARKS
FAYETTEVILLE   CLEAR     52  45  76 N8G17     29.85R
TULLAHOMA      CLEAR     46  46 100 W5        29.85R
WINCHESTER     CLEAR     48  46  93 NW5       29.84R
MCMINNVILLE    CLOUDY    50  45  81 NW5       29.83R
COLUMBIA       CLEAR    N/A N/A N/A CALM      29.85S
SHELBYVILLE    CLEAR     50  45  81 N3        29.86R
$$

TNZ017-018-042-046-047-050600-
NORTHEAST TENNESSEE

CITY           SKY/WX    TMP DP  RH WIND       PRES   REMARKS
TRI CITIES     CLOUDY    47  44  90 W8        29.74S
$$

TNZ012-013-036-069-073-074-050600-
CENTRAL EAST TENNESSEE

CITY           SKY/WX    TMP DP  RH WIND       PRES   REMARKS
KNOXVILLE      PTCLDY    49  47  93 SW3       29.77S
OAK RIDGE      LGT RAIN  49  47  93 W5        29.80R
GATLINBURG     MOCLDY    48  46  93 CALM      29.76S
MORRISTOWN     MOCLDY    48  45  87 W7        29.76S
$$

TNZ083-085-099-050600-
SOUTHEAST TENNESSEE

CITY           SKY/WX    TMP DP  RH WIND       PRES   REMARKS
CHATTANOOGA    CLEAR     52  48  86 CALM      29.81R
$$

SKY/WX REPORTED AS FAIR MEANS FEW OR NO CLOUDS BELOW
12 THOUSAND FEET.





USA.gov is the U.S. government's official web portal to all federal, state and local government web resources and services.